QPF
0.00 0.00 0.00 0.00 0.00 0.00 0.00 0.00 0.00 0.00 0.00 0.00 0.00 0.00 0.00 0.00 0.00 0.00 0.00 0.00 0.00 0.00 0.02 0.00 0.02 0.03 0.02 0.00 0.00 0.00 0.01 0.01 0.01 0.04 0.01 0.01 0.00 0.00 0.00 0.00 0.00 0.00 0.00 0.00 0.00 0.06 0.02 0.00 0.00
0.00 0.00 0.00 0.00 0.00 0.00 0.00 0.00 0.00 0.00 0.00 0.00 0.00 0.00 0.00 0.00 0.00 0.00 0.00 0.00 0.00 0.00 0.01 0.03 0.04 0.04 0.03 0.00 0.01 0.00 0.00 0.00 0.00 0.00 0.00 0.01 0.02 0.00 0.00 0.00 0.00 0.00 0.00 0.00 0.00 0.04 0.03 0.00 0.00
0.00 0.00 0.00 0.00 0.00 0.00 0.00 0.00 0.00 0.00 0.00 0.00 0.00 0.00 0.00 0.00 0.00 0.00 0.00 0.00 0.00 0.00 0.01 0.03 0.05 0.05 0.04 0.03 0.02 0.02 0.01 0.00 0.00 0.00 0.00 0.00 0.00 0.00 0.00 0.00 0.00 0.00 0.00 0.00 0.00 0.02 0.02 0.00 0.00
0.00 0.00 0.00 0.00 0.00 0.00 0.00 0.00 0.00 0.00 0.00 0.00 0.00 0.00 0.00 0.00 0.00 0.00 0.00 0.00 0.00 0.00 0.01 0.02 0.04 0.13 0.08 0.03 0.01 0.01 0.01 0.02 0.02 0.01 0.02 0.00 0.00 0.00 0.00 0.01 0.00 0.00 0.00 0.00 0.00 0.01 0.00 0.00 0.00
0.00 0.00 0.00 0.00 0.00 0.00 0.00 0.00 0.00 0.00 0.00 0.00 0.00 0.00 0.00 0.00 0.00 0.00 0.00 0.00 0.00 0.00 0.00 0.00 0.03 0.07 0.07 0.05 0.03 0.02 0.04 0.01 0.00 0.00 0.00 0.00 0.00 0.00 0.00 0.02 0.01 0.00 0.00 0.00 0.01 0.02 0.00 0.00 0.00
0.00 0.00 0.00 0.00 0.00 0.00 0.00 0.00 0.00 0.00 0.00 0.00 0.00 0.00 0.00 0.00 0.00 0.00 0.00 0.00 0.00 0.00 0.00 0.00 0.00 0.01 0.05 0.04 0.02 0.03 0.03 0.03 0.02 0.01 0.00 0.00 0.00 0.00 0.02 0.01 0.01 0.01 0.00 0.00 0.00 0.05 0.02 0.00 0.00
0.00 0.00 0.00 0.00 0.00 0.00 0.00 0.00 0.00 0.00 0.00 0.00 0.00 0.00 0.00 0.00 0.00 0.00 0.00 0.00 0.00 0.00 0.00 0.00 0.00 0.00 0.00 0.00 0.00 0.01 0.01 0.02 0.02 0.02 0.02 0.02 0.01 0.00 0.00 0.01 0.00 0.01 0.02 0.02 0.01 0.02 0.05 0.04 0.01
0.00 0.00 0.00 0.00 0.00 0.00 0.00 0.00 0.00 0.00 0.00 0.00 0.00 0.00 0.00 0.00 0.00 0.00 0.00 0.00 0.00 0.00 0.00 0.00 0.00 0.00 0.00 0.00 0.00 0.00 0.00 0.02 0.03 0.02 0.02 0.02 0.01 0.00 0.00 0.00 0.00 0.00 0.00 0.02 0.02 0.00 0.03 0.13 0.07
0.00 0.00 0.00 0.00 0.00 0.00 0.00 0.00 0.00 0.00 0.00 0.00 0.00 0.00 0.00 0.00 0.00 0.00 0.00 0.00 0.00 0.00 0.00 0.00 0.00 0.00 0.00 0.00 0.00 0.00 0.00 0.00 0.01 0.03 0.04 0.02 0.00 0.00 0.00 0.00 0.00 0.00 0.00 0.00 0.01 0.02 0.03 0.06 0.02
0.00 0.00 0.00 0.00 0.00 0.00 0.00 0.00 0.00 0.00 0.00 0.00 0.00 0.00 0.00 0.00 0.00 0.00 0.00 0.00 0.00 0.00 0.00 0.00 0.00 0.00 0.00 0.00 0.00 0.00 0.00 0.00 0.00 0.00 0.01 0.01 0.02 0.02 0.01 0.00 0.00 0.00 0.00 0.00 0.00 0.00 0.01 0.00 0.00
0.00 0.00 0.00 0.00 0.00 0.00 0.00 0.00 0.00 0.00 0.00 0.00 0.00 0.00 0.00 0.00 0.00 0.00 0.00 0.00 0.00 0.00 0.00 0.00 0.00 0.00 0.00 0.00 0.00 0.00 0.00 0.00 0.00 0.00 0.00 0.01 0.01 0.00 0.01 0.00 0.00 0.00 0.00 0.00 0.00 0.00 0.00 0.00 0.00
0.00 0.00 0.00 0.00 0.00 0.00 0.00 0.00 0.00 0.00 0.00 0.00 0.00 0.00 0.00 0.00 0.00 0.00 0.00 0.00 0.00 0.00 0.00 0.00 0.00 0.00 0.00 0.00 0.00 0.00 0.00 0.00 0.00 0.00 0.00 0.00 0.00 0.01 0.01 0.00 0.00 0.00 0.00 0.00 0.00 0.00 0.00 0.00 0.00
0.00 0.00 0.00 0.00 0.00 0.00 0.00 0.00 0.00 0.00 0.00 0.00 0.00 0.00 0.00 0.00 0.00 0.00 0.00 0.00 0.00 0.00 0.00 0.00 0.00 0.00 0.00 0.00 0.00 0.00 0.00 0.00 0.00 0.00 0.00 0.00 0.00 0.01 0.02 0.02 0.01 0.00 0.00 0.00 0.01 0.04 0.02 0.01 0.00
0.00 0.00 0.00 0.00 0.00 0.00 0.00 0.00 0.00 0.00 0.00 0.00 0.00 0.00 0.00 0.00 0.00 0.00 0.00 0.00 0.00 0.00 0.00 0.00 0.00 0.00 0.00 0.00 0.00 0.00 0.00 0.00 0.00 0.00 0.00 0.00 0.00 0.00 0.00 0.02 0.03 0.02 0.01 0.01 0.02 0.07 0.10 0.07 0.04
0.00 0.00 0.00 0.00 0.00 0.00 0.00 0.00 0.00 0.00 0.00 0.00 0.00 0.00 0.00 0.00 0.00 0.00 0.00 0.00 0.00 0.00 0.00 0.00 0.00 0.00 0.00 0.00 0.00 0.00 0.00 0.00 0.00 0.00 0.00 0.00 0.00 0.00 0.00 0.00 0.00 0.02 0.02 0.05 0.08 0.10 0.10 0.12 0.11
0.00 0.00 0.00 0.00 0.00 0.00 0.00 0.00 0.00 0.00 0.00 0.00 0.00 0.00 0.00 0.00 0.00 0.00 0.00 0.00 0.00 0.00 0.00 0.00 0.00 0.00 0.00 0.00 0.00 0.00 0.00 0.00 0.00 0.00 0.00 0.00 0.00 0.00 0.00 0.00 0.00 0.01 0.03 0.04 0.07 0.08 0.08 0.10 0.08
0.00 0.00 0.00 0.00 0.00 0.00 0.00 0.00 0.00 0.00 0.00 0.00 0.00 0.00 0.00 0.00 0.00 0.00 0.00 0.00 0.00 0.00 0.00 0.00 0.00 0.00 0.00 0.00 0.00 0.00 0.00 0.00 0.00 0.00 0.00 0.00 0.00 0.00 0.00 0.00 0.00 0.00 0.02 0.04 0.05 0.07 0.07 0.10 0.08
0.00 0.00 0.00 0.00 0.00 0.00 0.00 0.00 0.00 0.00 0.00 0.00 0.00 0.00 0.00 0.00 0.00 0.00 0.00 0.00 0.00 0.00 0.00 0.00 0.00 0.00 0.00 0.00 0.00 0.00 0.00 0.00 0.00 0.00 0.00 0.00 0.00 0.00 0.00 0.00 0.00 0.00 0.00 0.01 0.03 0.06 0.08 0.09 0.10
0.00 0.00 0.00 0.00 0.00 0.00 0.00 0.00 0.00 0.00 0.00 0.00 0.00 0.00 0.00 0.00 0.00 0.00 0.00 0.00 0.00 0.00 0.00 0.00 0.00 0.00 0.00 0.00 0.00 0.00 0.00 0.00 0.00 0.00 0.00 0.00 0.00 0.00 0.00 0.00 0.00 0.00 0.00 0.00 0.01 0.04 0.07 0.06 0.10
0.00 0.00 0.00 0.00 0.00 0.00 0.00 0.00 0.00 0.00 0.00 0.00 0.00 0.00 0.00 0.00 0.00 0.00 0.00 0.00 0.00 0.00 0.00 0.00 0.00 0.00 0.00 0.00 0.00 0.00 0.00 0.00 0.00 0.00 0.00 0.00 0.00 0.00 0.00 0.00 0.00 0.00 0.00 0.00 0.01 0.03 0.05 0.07 0.10
0.00 0.00 0.00 0.00 0.00 0.00 0.00 0.00 0.00 0.00 0.00 0.00 0.00 0.00 0.00 0.00 0.00 0.00 0.00 0.00 0.00 0.00 0.00 0.00 0.00 0.00 0.00 0.00 0.00 0.00 0.00 0.00 0.00 0.00 0.00 0.00 0.00 0.00 0.00 0.00 0.00 0.00 0.00 0.00 0.01 0.02 0.04 0.05 0.08
0.00 0.00 0.00 0.00 0.00 0.00 0.00 0.00 0.00 0.00 0.00 0.00 0.00 0.00 0.00 0.00 0.00 0.00 0.00 0.00 0.00 0.00 0.00 0.00 0.00 0.00 0.00 0.00 0.00 0.00 0.00 0.00 0.00 0.00 0.00 0.00 0.00 0.00 0.00 0.00 0.00 0.00 0.00 0.01 0.01 0.01 0.04 0.06 0.06
0.00 0.00 0.00 0.00 0.00 0.00 0.00 0.00 0.00 0.00 0.00 0.00 0.00 0.00 0.00 0.00 0.00 0.00 0.00 0.00 0.00 0.00 0.00 0.00 0.00 0.00 0.00 0.00 0.00 0.00 0.00 0.00 0.00 0.00 0.00 0.00 0.00 0.00 0.00 0.01 0.01 0.01 0.00 0.00 0.01 0.02 0.03 0.05 0.06
0.00 0.00 0.00 0.00 0.00 0.00 0.00 0.00 0.00 0.00 0.00 0.00 0.00 0.00 0.00 0.00 0.00 0.00 0.00 0.00 0.00 0.00 0.00 0.00 0.00 0.00 0.00 0.00 0.00 0.00 0.00 0.00 0.00 0.00 0.00 0.00 0.00 0.00 0.00 0.01 0.01 0.02 0.02 0.01 0.00 0.01 0.02 0.03 0.06
0.00 0.00 0.00 0.00 0.00 0.00 0.00 0.00 0.00 0.00 0.00 0.00 0.00 0.00 0.00 0.00 0.00 0.00 0.00 0.00 0.00 0.00 0.00 0.00 0.00 0.00 0.00 0.00 0.00 0.00 0.00 0.00 0.00 0.00 0.00 0.00 0.00 0.00 0.00 0.00 0.00 0.00 0.01 0.01 0.00 0.00 0.00 0.01 0.01
0.00 0.00 0.00 0.00 0.00 0.00 0.00 0.00 0.00 0.00 0.00 0.00 0.00 0.00 0.00 0.00 0.00 0.00 0.00 0.00 0.00 0.00 0.00 0.00 0.00 0.00 0.00 0.00 0.00 0.00 0.00 0.00 0.00 0.00 0.00 0.00 0.00 0.00 0.00 0.00 0.00 0.00 0.00 0.00 0.00 0.00 0.00 0.00 0.00
0.00 0.00 0.00 0.00 0.00 0.00 0.00 0.00 0.00 0.00 0.00 0.00 0.00 0.00 0.00 0.00 0.00 0.00 0.00 0.00 0.00 0.00 0.00 0.00 0.00 0.00 0.00 0.00 0.00 0.00 0.00 0.00 0.00 0.00 0.00 0.00 0.00 0.00 0.00 0.00 0.00 0.00 0.00 0.00 0.00 0.00 0.00 0.00 0.00
0.00 0.00 0.00 0.00 0.00 0.00 0.00 0.00 0.00 0.00 0.00 0.00 0.00 0.00 0.00 0.00 0.00 0.00 0.00 0.00 0.00 0.00 0.00 0.00 0.00 0.00 0.00 0.00 0.00 0.00 0.00 0.00 0.00 0.00 0.00 0.00 0.00 0.00 0.00 0.00 0.00 0.00 0.00 0.00 0.00 0.00 0.00 0.00 0.00
0.00 0.00 0.00 0.00 0.00 0.00 0.00 0.00 0.00 0.00 0.00 0.00 0.00 0.00 0.00 0.00 0.00 0.00 0.00 0.00 0.00 0.00 0.00 0.00 0.00 0.00 0.00 0.00 0.00 0.00 0.00 0.00 0.00 0.00 0.00 0.00 0.00 0.00 0.00 0.00 0.00 0.00 0.00 0.00 0.00 0.00 0.00 0.00 0.00
0.00 0.00 0.00 0.00 0.00 0.00 0.00 0.00 0.00 0.00 0.00 0.00 0.00 0.00 0.00 0.00 0.00 0.00 0.00 0.00 0.00 0.00 0.00 0.00 0.00 0.00 0.00 0.00 0.00 0.00 0.00 0.00 0.00 0.00 0.00 0.00 0.00 0.00 0.00 0.00 0.00 0.00 0.00 0.00 0.00 0.00 0.00 0.00 0.00
MSLP
1013.57 1013.37 1013.73 1014.08 1015.83 1016.65 1016.86 1016.53 1015.90 1015.37 1015.19 1015.20 1015.09 1015.29 1016.02 1016.66 1017.11 1017.75 1017.10 1016.86 1016.40 1015.82 1015.18 1014.86 1014.99 1015.16 1015.17 1015.30 1015.34 1015.39 1015.44 1015.47 1015.50 1015.52 1015.55 1015.54 1015.48 1015.61 1015.72 1015.74 1015.69 1015.62 1015.60 1015.63 1015.62 1015.63 1015.64 1015.68 1015.79
1013.62 1013.64 1014.13 1015.35 1016.59 1017.43 1017.39 1016.62 1016.03 1015.66 1015.38 1015.46 1015.58 1016.11 1016.44 1017.34 1017.34 1017.42 1017.25 1016.92 1016.45 1015.80 1015.37 1015.10 1015.10 1015.29 1015.41 1015.43 1015.53 1015.53 1015.56 1015.62 1015.66 1015.64 1015.63 1015.61 1015.63 1015.62 1015.70 1015.76 1015.78 1015.74 1015.66 1015.66 1015.66 1015.67 1015.73 1015.77 1015.81
1013.67 1013.85 1015.10 1016.36 1017.43 1017.76 1017.35 1016.60 1016.13 1015.79 1015.52 1015.44 1016.17 1016.61 1017.04 1017.68 1017.59 1017.65 1017.51 1017.21 1016.57 1015.93 1015.52 1015.21 1015.23 1015.33 1015.46 1015.57 1015.55 1015.59 1015.59 1015.62 1015.64 1015.62 1015.63 1015.62 1015.63 1015.64 1015.70 1015.71 1015.77 1015.78 1015.74 1015.70 1015.62 1015.65 1015.79 1015.89 1015.90
1014.07 1014.71 1016.32 1016.77 1017.79 1017.66 1017.11 1016.59 1016.27 1015.98 1015.80 1015.83 1016.46 1017.34 1017.61 1017.79 1017.66 1017.63 1017.54 1017.24 1016.89 1016.27 1015.92 1015.69 1015.49 1015.49 1015.50 1015.44 1015.57 1015.59 1015.62 1015.58 1015.57 1015.62 1015.69 1015.62 1015.56 1015.58 1015.60 1015.63 1015.70 1015.79 1015.83 1015.72 1015.46 1015.53 1015.65 1015.80 1015.91
1014.72 1015.91 1017.18 1017.93 1018.00 1017.63 1017.12 1016.72 1016.43 1016.44 1016.56 1016.71 1016.72 1017.69 1018.01 1017.90 1017.74 1017.66 1017.65 1017.43 1017.23 1016.78 1016.44 1016.17 1016.01 1015.84 1015.75 1015.69 1015.68 1015.67 1015.59 1015.55 1015.55 1015.50 1015.38 1015.47 1015.47 1015.48 1015.50 1015.59 1015.56 1015.58 1015.61 1015.69 1015.59 1015.50 1015.63 1015.68 1015.78
1015.84 1016.60 1017.95 1018.56 1018.21 1017.73 1017.29 1016.97 1016.75 1016.98 1017.10 1017.08 1017.30 1017.84 1018.33 1018.10 1018.01 1018.03 1017.83 1017.75 1017.54 1017.38 1017.01 1016.71 1016.48 1016.36 1016.24 1016.13 1015.93 1015.79 1015.72 1015.62 1015.58 1015.55 1015.45 1015.44 1015.42 1015.41 1015.37 1015.37 1015.39 1015.46 1015.48 1015.38 1015.33 1015.44 1015.58 1015.68 1015.71
1016.07 1017.21 1018.33 1018.56 1018.45 1017.94 1017.52 1017.17 1017.32 1017.38 1017.38 1017.46 1017.59 1018.26 1018.48 1018.32 1018.30 1018.18 1018.03 1017.90 1017.72 1017.55 1017.35 1017.23 1017.00 1016.72 1016.52 1016.40 1016.21 1016.10 1015.91 1015.69 1015.59 1015.51 1015.47 1015.43 1015.33 1015.30 1015.26 1015.26 1015.22 1015.15 1015.16 1015.22 1015.30 1015.19 1015.22 1015.31 1015.51
1016.31 1017.30 1018.62 1018.77 1018.62 1018.11 1017.73 1017.58 1017.67 1017.64 1017.68 1017.49 1017.52 1018.22 1018.54 1018.39 1018.40 1018.33 1018.22 1018.05 1017.97 1017.84 1017.74 1017.64 1017.50 1017.30 1017.05 1016.78 1016.45 1016.19 1015.96 1015.79 1015.61 1015.51 1015.43 1015.40 1015.32 1015.26 1015.21 1015.11 1015.02 1014.97 1014.94 1014.91 1014.91 1014.90 1014.96 1014.94 1015.04
1016.34 1017.75 1019.06 1018.75 1018.55 1018.23 1017.94 1017.93 1017.99 1017.88 1017.87 1017.82 1017.86 1018.13 1018.30 1018.44 1018.57 1018.67 1018.63 1018.61 1018.41 1018.36 1018.34 1018.08 1017.92 1017.67 1017.46 1017.10 1016.78 1016.58 1016.20 1015.90 1015.71 1015.53 1015.38 1015.33 1015.19 1015.09 1014.99 1014.97 1014.91 1014.81 1014.71 1014.61 1014.59 1014.51 1014.50 1014.61 1014.79
1017.04 1018.27 1018.75 1018.63 1018.39 1018.33 1018.26 1018.27 1018.34 1018.31 1018.28 1018.22 1018.27 1018.46 1018.55 1018.77 1018.99 1019.06 1019.16 1019.34 1019.25 1019.05 1018.74 1018.60 1018.23 1018.00 1017.72 1017.33 1017.16 1016.92 1016.59 1016.24 1015.88 1015.61 1015.39 1015.21 1015.13 1014.79 1014.71 1014.67 1014.68 1014.64 1014.56 1014.45 1014.27 1014.22 1014.21 1014.26 1014.44
1017.73 1018.42 1018.81 1018.91 1018.70 1018.46 1018.58 1018.69 1018.66 1018.58 1018.64 1018.42 1018.43 1018.58 1018.81 1019.07 1019.10 1019.28 1019.58 1019.66 1019.66 1019.56 1019.28 1018.91 1018.52 1018.23 1018.01 1017.80 1017.45 1017.12 1016.86 1016.49 1016.05 1015.66 1015.31 1015.05 1014.82 1014.62 1014.51 1014.40 1014.33 1014.30 1014.27 1014.28 1014.19 1014.07 1013.94 1014.02 1014.16
1018.18 1018.82 1018.86 1019.21 1019.18 1019.02 1019.18 1019.21 1019.07 1018.94 1018.55 1018.38 1018.59 1018.65 1018.87 1019.15 1019.44 1019.65 1019.82 1020.06 1019.98 1019.85 1019.68 1019.25 1018.80 1018.45 1018.17 1017.92 1017.63 1017.29 1016.98 1016.60 1016.26 1015.81 1015.44 1015.16 1014.81 1014.53 1014.36 1014.22 1013.95 1013.87 1013.74 1013.75 1013.69 1013.63 1013.51 1013.44 1013.53
1018.52 1019.20 1019.32 1019.58 1019.51 1019.65 1019.59 1019.55 1019.56 1019.04 1018.70 1018.81 1018.85 1018.87 1019.07 1019.43 1019.82 1020.06 1020.22 1020.33 1020.33 1020.06 1019.68 1019.31 1018.94 1018.58 1018.30 1017.91 1017.65 1017.37 1016.99 1016.61 1016.23 1015.85 1015.44 1015.15 1014.90 1014.68 1014.19 1014.05 1013.77 1013.44 1013.23 1013.21 1013.08 1013.01 1012.99 1013.05 1013.02
1019.32 1019.64 1019.90 1019.94 1019.95 1020.01 1020.06 1019.97 1019.75 1018.80 1018.55 1018.66 1018.90 1019.14 1019.67 1019.78 1020.12 1020.51 1020.71 1020.79 1020.58 1020.33 1019.98 1019.64 1019.15 1018.70 1018.43 1018.04 1017.68 1017.28 1016.94 1016.56 1016.16 1015.79 1015.35 1015.01 1014.83 1014.58 1014.25 1014.03 1013.66 1013.24 1012.97 1012.75 1012.53 1012.41 1012.34 1012.47 1012.62
1019.77 1020.26 1020.35 1020.25 1020.19 1020.34 1020.29 1020.05 1019.63 1018.94 1018.85 1018.99 1019.23 1019.77 1020.14 1020.47 1020.64 1020.96 1021.16 1021.13 1021.01 1020.74 1020.43 1019.92 1019.26 1018.76 1018.63 1018.22 1017.74 1017.34 1016.82 1016.33 1016.10 1015.70 1015.26 1014.90 1014.55 1014.35 1014.10 1013.85 1013.50 1013.06 1012.66 1012.37 1012.05 1012.03 1011.94 1012.08 1012.26
1020.49 1020.81 1020.94 1020.47 1020.35 1020.43 1020.49 1019.93 1019.19 1019.06 1019.21 1019.39 1019.70 1020.14 1020.57 1020.94 1021.11 1021.34 1021.42 1021.32 1021.20 1021.02 1020.59 1020.12 1019.50 1019.02 1018.62 1018.16 1017.67 1017.16 1016.67 1016.33 1015.86 1015.52 1015.11 1014.72 1014.28 1013.95 1013.74 1013.50 1013.08 1012.70 1012.51 1012.26 1012.02 1011.72 1011.68 1011.73 1011.79
1021.78 1021.56 1021.25 1020.87 1020.78 1020.86 1021.11 1020.46 1019.48 1019.41 1019.55 1019.85 1020.13 1020.37 1020.88 1021.22 1021.38 1021.49 1021.62 1021.58 1021.39 1021.14 1020.76 1020.23 1019.72 1019.32 1018.69 1018.03 1017.50 1017.01 1016.42 1016.06 1015.61 1015.27 1014.90 1014.47 1014.18 1013.82 1013.54 1013.26 1012.85 1012.50 1012.25 1012.06 1011.83 1011.34 1011.24 1011.22 1011.16
1022.31 1021.96 1021.62 1021.56 1021.73 1021.50 1021.55 1020.68 1020.08 1019.85 1020.03 1020.05 1020.38 1020.85 1021.22 1021.40 1021.54 1021.60 1021.65 1021.50 1021.28 1020.99 1020.67 1020.31 1019.82 1019.19 1018.54 1017.87 1017.30 1016.75 1016.30 1015.94 1015.46 1015.09 1014.68 1014.30 1014.03 1013.82 1013.42 1012.96 1012.58 1012.19 1012.07 1011.67 1011.44 1011.14 1010.70 1010.61 1010.48
1022.36 1022.27 1022.38 1022.22 1022.24 1022.21 1021.75 1021.04 1019.57 1019.72 1019.89 1019.91 1020.32 1020.97 1021.28 1021.55 1021.64 1021.57 1021.54 1021.36 1021.13 1020.89 1020.72 1020.45 1019.86 1019.34 1018.78 1018.09 1017.63 1017.08 1016.63 1016.11 1015.65 1015.26 1014.88 1014.55 1014.43 1014.01 1013.42 1013.11 1012.67 1012.10 1011.48 1011.20 1010.98 1010.61 1010.50 1010.27 1010.32
1022.70 1022.89 1023.01 1022.80 1022.71 1023.02 1022.21 1021.11 1019.44 1019.30 1019.23 1019.36 1019.93 1020.85 1021.26 1021.53 1021.65 1021.60 1021.46 1021.34 1021.39 1021.30 1021.06 1020.64 1020.21 1019.69 1019.06 1018.52 1017.97 1017.57 1016.96 1016.42 1016.13 1015.49 1015.24 1014.88 1014.78 1014.74 1013.89 1013.41 1013.07 1012.19 1011.26 1010.51 1010.33 1010.34 1010.00 1009.85 1009.94
1023.59 1023.62 1023.74 1024.00 1023.65 1023.47 1023.13 1021.31 1019.81 1019.30 1019.29 1019.49 1019.89 1020.61 1021.15 1021.32 1021.38 1021.41 1021.35 1021.54 1021.53 1021.38 1021.17 1020.84 1020.42 1019.97 1019.29 1018.77 1018.23 1017.66 1016.99 1016.60 1016.12 1015.94 1015.64 1015.11 1015.26 1015.13 1014.50 1013.95 1013.29 1012.27 1011.32 1010.06 1009.53 1009.64 1009.70 1009.49 1009.45
1023.92 1023.89 1024.15 1024.56 1024.95 1025.02 1024.46 1023.09 1020.59 1019.64 1019.59 1019.89 1020.36 1020.75 1021.02 1021.17 1021.22 1021.28 1021.38 1021.47 1021.43 1021.27 1021.10 1020.84 1020.43 1020.02 1019.44 1019.01 1018.49 1018.03 1017.64 1017.28 1017.10 1016.80 1016.22 1015.82 1015.61 1015.50 1014.51 1014.16 1013.55 1012.90 1011.53 1010.11 1009.28 1008.85 1009.07 1009.12 1009.12
1023.90 1024.07 1024.56 1025.08 1025.82 1026.49 1025.63 1025.03 1020.52 1019.87 1019.74 1019.73 1020.06 1020.52 1020.81 1020.97 1021.11 1021.22 1021.24 1021.28 1021.16 1021.14 1021.05 1020.85 1020.53 1020.14 1019.59 1019.19 1018.91 1018.59 1018.34 1017.98 1017.66 1017.22 1016.69 1016.26 1015.83 1015.40 1014.78 1014.61 1013.91 1013.52 1012.53 1011.32 1010.17 1009.16 1008.86 1008.54 1008.89
1023.93 1024.45 1025.09 1025.72 1026.70 1027.29 1026.21 1025.56 1021.45 1019.95 1019.04 1019.06 1019.55 1020.12 1020.51 1020.87 1021.02 1021.11 1021.17 1021.20 1021.19 1021.05 1021.06 1020.86 1020.39 1020.07 1019.85 1019.54 1019.22 1018.89 1018.65 1018.49 1018.19 1017.73 1017.39 1017.12 1016.62 1015.24 1015.19 1015.06 1014.66 1014.13 1013.35 1012.40 1011.44 1010.57 1009.78 1009.31 1009.02
1024.15 1024.99 1026.11 1027.19 1027.78 1027.41 1026.54 1025.90 1020.93 1018.93 1018.52 1018.58 1018.97 1019.74 1020.27 1020.63 1020.89 1021.05 1021.09 1021.02 1020.93 1020.95 1020.77 1020.64 1020.40 1020.18 1019.99 1019.79 1019.41 1019.17 1019.19 1019.02 1018.77 1018.51 1018.15 1017.47 1017.03 1016.25 1015.80 1015.51 1015.20 1014.69 1013.94 1013.22 1012.42 1011.61 1010.80 1010.26 1009.46
1024.34 1025.22 1026.69 1028.23 1029.27 1028.57 1027.02 1024.78 1020.01 1018.77 1018.44 1018.53 1018.90 1019.53 1020.02 1020.38 1020.60 1020.74 1020.69 1020.73 1020.75 1020.65 1020.56 1020.53 1020.23 1020.06 1019.88 1019.73 1019.64 1019.54 1019.33 1019.13 1018.95 1018.73 1018.45 1018.18 1017.59 1016.98 1016.67 1016.32 1016.03 1015.28 1014.70 1013.78 1013.12 1012.53 1012.16 1011.97 1011.37
1024.48 1025.35 1026.41 1027.89 1029.70 1029.32 1026.44 1023.57 1019.84 1018.55 1018.52 1018.69 1018.94 1019.45 1019.78 1020.10 1020.13 1020.16 1020.22 1020.30 1020.35 1020.30 1020.26 1020.26 1020.10 1019.96 1019.82 1019.83 1019.82 1019.76 1019.54 1019.32 1019.12 1018.79 1018.58 1018.34 1017.99 1017.63 1017.17 1016.68 1016.25 1015.69 1015.33 1014.61 1013.99 1013.35 1013.00 1012.53 1012.05
1024.15 1025.20 1026.26 1027.64 1029.00 1028.88 1026.10 1024.08 1020.65 1018.76 1018.23 1018.34 1018.75 1018.92 1019.19 1019.50 1019.63 1019.67 1019.69 1019.75 1019.86 1019.87 1019.85 1020.07 1020.11 1020.10 1019.99 1019.95 1019.91 1019.74 1019.52 1019.31 1019.14 1018.96 1018.79 1018.49 1018.22 1017.91 1017.44 1016.97 1016.61 1016.24 1015.85 1015.33 1014.88 1014.33 1014.02 1013.54 1012.59
1024.57 1025.05 1025.94 1026.96 1027.74 1027.95 1026.42 1022.36 1018.72 1017.94 1017.54 1017.65 1017.60 1017.90 1018.27 1018.60 1018.76 1018.92 1018.98 1019.05 1019.18 1019.26 1019.44 1019.62 1019.70 1019.72 1019.72 1019.70 1019.69 1019.68 1019.61 1019.44 1019.24 1019.10 1018.97 1018.83 1018.60 1018.33 1017.98 1017.58 1017.05 1016.50 1016.15 1015.73 1015.21 1014.85 1014.91 1014.51 1014.20
1023.90 1024.33 1025.10 1026.28 1026.77 1026.60 1025.68 1020.70 1017.71 1017.25 1017.14 1017.27 1017.18 1017.33 1017.40 1017.64 1017.72 1018.01 1018.22 1018.46 1018.59 1018.66 1018.81 1018.97 1019.12 1019.27 1019.26 1019.23 1019.32 1019.43 1019.48 1019.44 1019.38 1019.30 1019.14 1018.94 1018.75 1018.52 1018.29 1018.00 1017.69 1017.27 1016.84 1016.45 1016.14 1015.67 1015.04 1014.72 1014.54
Thickness
5734 5738 5738 5733 5705 5694 5693 5706 5709 5717 5719 5725 5729 5724 5715 5713 5709 5699 5725 5729 5732 5737 5742 5744 5742 5741 5741 5739 5738 5738 5736 5736 5736 5735 5734 5734 5735 5733 5733 5733 5734 5734 5735 5734 5735 5734 5734 5734 5733
5731 5734 5730 5710 5685 5680 5685 5703 5706 5714 5723 5723 5724 5720 5714 5704 5713 5716 5719 5726 5729 5733 5738 5739 5739 5737 5736 5736 5735 5734 5733 5733 5732 5732 5731 5731 5730 5730 5730 5729 5729 5729 5730 5730 5730 5730 5731 5730 5730
5727 5729 5713 5691 5673 5678 5684 5703 5708 5716 5720 5725 5716 5714 5711 5703 5711 5711 5716 5720 5725 5729 5733 5735 5734 5734 5733 5732 5732 5731 5731 5730 5730 5730 5729 5728 5728 5727 5726 5726 5726 5726 5726 5727 5727 5726 5725 5725 5726
5717 5714 5700 5682 5685 5691 5696 5704 5707 5713 5718 5717 5712 5701 5706 5708 5708 5711 5713 5715 5719 5723 5726 5727 5728 5729 5728 5729 5728 5727 5727 5728 5727 5727 5726 5727 5726 5725 5724 5724 5723 5723 5722 5723 5725 5724 5723 5722 5721
5707 5696 5675 5674 5682 5690 5697 5703 5707 5706 5706 5703 5707 5694 5695 5704 5707 5708 5709 5711 5713 5716 5718 5719 5721 5722 5722 5723 5722 5722 5723 5724 5723 5723 5724 5723 5723 5722 5722 5721 5721 5721 5720 5720 5720 5720 5719 5718 5718
5688 5686 5665 5663 5675 5685 5693 5696 5700 5694 5695 5699 5697 5691 5691 5700 5700 5701 5704 5705 5706 5707 5709 5710 5711 5712 5714 5715 5716 5717 5717 5718 5718 5718 5718 5718 5718 5718 5718 5718 5718 5717 5716 5717 5718 5717 5715 5714 5713
5682 5672 5663 5661 5665 5679 5687 5694 5688 5687 5688 5690 5694 5682 5687 5691 5693 5696 5698 5699 5701 5701 5702 5703 5703 5704 5706 5707 5708 5708 5709 5710 5711 5711 5712 5712 5713 5713 5713 5713 5713 5714 5713 5713 5712 5713 5713 5712 5710
5675 5672 5663 5663 5661 5672 5681 5685 5684 5684 5684 5691 5692 5675 5675 5684 5689 5690 5691 5691 5692 5693 5694 5695 5695 5695 5696 5697 5699 5700 5702 5703 5704 5704 5704 5704 5705 5705 5706 5707 5708 5708 5708 5709 5709 5709 5708 5708 5708
5678 5655 5650 5661 5662 5667 5674 5675 5678 5681 5681 5683 5683 5680 5681 5682 5681 5681 5681 5681 5683 5683 5683 5685 5686 5687 5688 5690 5691 5693 5695 5697 5697 5698 5698 5698 5699 5699 5699 5699 5700 5701 5702 5703 5703 5704 5704 5704 5702
5661 5649 5656 5660 5663 5661 5666 5668 5667 5671 5669 5673 5674 5674 5676 5675 5672 5672 5672 5669 5671 5673 5675 5676 5679 5681 5682 5683 5685 5686 5687 5688 5690 5691 5692 5692 5692 5694 5693 5693 5692 5692 5692 5694 5696 5697 5697 5699 5698
5657 5651 5653 5653 5656 5660 5660 5659 5659 5662 5663 5666 5667 5669 5670 5669 5671 5670 5666 5665 5665 5664 5665 5669 5671 5673 5675 5675 5677 5679 5680 5681 5682 5683 5685 5686 5687 5687 5687 5687 5687 5686 5685 5685 5685 5687 5690 5691 5690
5646 5647 5651 5648 5648 5652 5651 5651 5654 5656 5663 5665 5666 5667 5667 5667 5666 5663 5661 5657 5656 5657 5659 5662 5664 5665 5666 5667 5668 5670 5672 5673 5674 5674 5674 5675 5677 5678 5678 5678 5680 5680 5681 5681 5680 5681 5682 5684 5684
5641 5640 5641 5640 5642 5642 5645 5645 5646 5649 5656 5658 5659 5661 5663 5660 5656 5655 5653 5651 5650 5651 5653 5654 5655 5657 5657 5659 5660 5660 5661 5662 5663 5664 5663 5663 5664 5665 5667 5667 5669 5673 5674 5675 5676 5677 5678 5678 5679
5633 5631 5633 5635 5636 5637 5638 5639 5641 5656 5659 5659 5658 5657 5654 5653 5650 5646 5643 5641 5642 5643 5644 5644 5646 5648 5648 5649 5649 5650 5650 5651 5651 5651 5651 5650 5650 5651 5653 5655 5657 5661 5663 5666 5669 5673 5674 5673 5672
5627 5624 5626 5627 5631 5631 5632 5639 5637 5650 5654 5656 5656 5649 5645 5641 5639 5635 5633 5632 5631 5632 5632 5634 5637 5638 5637 5638 5639 5639 5640 5640 5640 5639 5638 5637 5636 5636 5638 5642 5645 5648 5651 5655 5660 5662 5664 5665 5665
5617 5613 5616 5626 5628 5630 5632 5633 5648 5648 5646 5649 5646 5643 5637 5633 5630 5626 5623 5622 5621 5621 5622 5623 5625 5627 5628 5629 5629 5629 5629 5629 5629 5628 5626 5624 5623 5623 5624 5626 5630 5632 5634 5638 5644 5649 5651 5653 5655
5597 5606 5616 5620 5624 5624 5624 5627 5641 5641 5642 5638 5636 5635 5627 5623 5621 5617 5614 5612 5611 5612 5613 5614 5616 5617 5618 5619 5620 5620 5621 5620 5619 5615 5613 5611 5609 5606 5605 5608 5611 5613 5617 5621 5627 5635 5638 5642 5645
5601 5606 5613 5615 5612 5616 5614 5619 5628 5633 5632 5631 5629 5620 5617 5614 5612 5609 5605 5604 5604 5605 5605 5605 5606 5608 5610 5611 5611 5611 5610 5608 5605 5601 5598 5595 5590 5585 5584 5586 5590 5592 5597 5604 5611 5618 5626 5630 5635
5599 5600 5603 5606 5606 5606 5609 5612 5631 5627 5626 5625 5621 5609 5607 5606 5603 5602 5600 5599 5599 5598 5596 5595 5597 5599 5600 5600 5600 5598 5596 5593 5590 5586 5583 5579 5572 5568 5565 5564 5566 5569 5579 5587 5593 5602 5608 5616 5621
5593 5595 5592 5591 5601 5597 5600 5611 5630 5627 5626 5623 5615 5601 5600 5599 5595 5594 5594 5592 5589 5587 5586 5586 5587 5588 5589 5589 5589 5587 5584 5581 5575 5573 5571 5564 5557 5548 5544 5539 5536 5544 5555 5568 5577 5584 5594 5602 5608
5578 5581 5585 5582 5585 5591 5585 5605 5623 5626 5619 5613 5607 5600 5596 5594 5592 5589 5589 5584 5581 5579 5578 5578 5578 5578 5579 5578 5578 5576 5575 5572 5568 5562 5558 5552 5541 5531 5524 5517 5513 5519 5530 5550 5562 5570 5576 5588 5596
5585 5582 5583 5580 5562 5559 5573 5563 5607 5615 5612 5606 5596 5592 5590 5589 5587 5585 5583 5579 5576 5575 5572 5570 5570 5569 5570 5568 5567 5565 5562 5557 5550 5547 5543 5536 5528 5519 5512 5501 5495 5497 5511 5532 5548 5560 5566 5573 5583
5577 5579 5577 5575 5562 5535 5560 5530 5593 5605 5605 5600 5591 5587 5585 5583 5581 5579 5577 5575 5573 5569 5565 5563 5562 5561 5561 5559 5555 5552 5547 5543 5537 5534 5531 5526 5519 5512 5505 5492 5486 5485 5492 5508 5528 5546 5556 5567 5572
5573 5571 5564 5559 5538 5512 5534 5537 5585 5598 5606 5605 5597 5586 5582 5578 5576 5574 5573 5569 5565 5563 5559 5557 5557 5554 5551 5548 5545 5542 5538 5532 5526 5521 5517 5511 5508 5510 5498 5488 5482 5480 5483 5492 5507 5523 5536 5547 5557
5567 5547 5509 5524 5500 5538 5545 5508 5585 5603 5602 5602 5595 5584 5577 5574 5571 5569 5566 5563 5562 5558 5556 5553 5550 5547 5542 5539 5537 5534 5527 5522 5516 5511 5505 5502 5499 5498 5492 5483 5478 5477 5479 5483 5490 5503 5517 5529 5542
5565 5554 5505 5531 5493 5513 5514 5526 5583 5596 5592 5597 5593 5586 5577 5572 5568 5565 5563 5559 5557 5555 5551 5547 5545 5542 5538 5534 5529 5525 5520 5515 5510 5504 5498 5493 5490 5487 5482 5478 5473 5472 5472 5477 5480 5488 5497 5505 5517
5561 5538 5546 5504 5465 5497 5502 5545 5584 5591 5594 5588 5585 5579 5572 5567 5566 5564 5561 5558 5554 5551 5547 5543 5540 5537 5533 5528 5523 5517 5512 5508 5503 5499 5494 5488 5484 5481 5477 5473 5472 5472 5471 5471 5473 5478 5487 5496 5504
5563 5551 5534 5506 5500 5515 5509 5529 5555 5595 5588 5585 5580 5576 5571 5567 5564 5562 5560 5556 5551 5548 5544 5538 5533 5529 5525 5520 5515 5511 5507 5503 5498 5493 5487 5483 5478 5475 5473 5472 5469 5468 5467 5468 5470 5472 5476 5484 5494
5548 5545 5540 5526 5515 5509 5519 5539 5568 5583 5591 5588 5588 5581 5574 5569 5564 5561 5559 5556 5551 5546 5540 5534 5530 5525 5520 5514 5509 5504 5499 5495 5491 5487 5482 5476 5472 5468 5465 5464 5464 5463 5462 5463 5466 5470 5470 5472 5474
5553 5549 5539 5524 5534 5510 5511 5549 5592 5587 5587 5582 5583 5581 5577 5571 5567 5562 5558 5554 5550 5545 5539 5534 5528 5522 5517 5512 5506 5499 5493 5488 5484 5480 5476 5472 5468 5464 5460 5457 5455 5455 5456 5456 5457 5459 5464 5466 5467